Presure
189 128 296 168 173 327 318 352 342 334 388 366 366 350 333 332 327 334 315 289 272 268 260 258 288 284 279 299 289 275 266 270 266 273 274 264 257 281 264 251 246 259 268 244
156 220 171 169 210 334 316 347 336 334 405 362 356 356 343 312 297 284 278 267 264 265 269 299 294 282 276 292 277 280 264 261 281 280 289 281 279 267 263 257 263 262 260 270
194 340 326 339 258 346 323 349 347 331 354 366 368 348 325 305 288 279 273 269 264 291 286 293 270 284 276 274 276 272 268 257 266 269 269 270 267 274 277 277 250 259 258 259
176 202 211 327 328 343 345 343 329 331 386 399 336 343 314 297 281 282 272 263 264 271 274 291 278 267 287 284 277 270 267 270 256 260 264 250 248 244 254 262 248 244 249 250
372 220 173 338 327 341 341 341 329 332 384 397 346 334 310 293 283 279 271 263 266 265 270 267 272 274 267 260 265 282 282 282 267 266 255 254 257 251 253 254 250 253 244 241
225 127 354 339 340 341 348 340 317 325 384 381 363 323 297 291 285 277 276 272 270 264 266 271 269 266 267 262 262 261 261 267 279 283 266 266 254 253 249 246 245 245 244 236
368 257 354 355 346 339 325 337 321 320 377 360 340 313 297 292 260 276 266 265 261 257 273 270 276 267 259 255 259 264 269 259 260 263 275 281 267 252 250 248 247 245 245 248
370 363 353 147 350 338 344 334 317 314 302 349 310 315 302 284 279 251 266 269 271 274 265 261 259 250 272 272 272 273 277 280 281 282 286 268 280 272 266 263 260 262 261 262
291 365 353 364 351 339 330 339 313 304 302 358 338 313 301 284 273 268 267 270 267 260 266 283 275 272 269 269 268 269 270 271 273 276 278 281 284 291 293 296 294 284 283 284
369 364 352 115 347 340 327 319 317 309 310 304 313 317 293 289 269 268 267 265 257 274 282 273 271 264 263 255 244 239 247 254 246 247 248 253 254 255 257 257 253 254 249 246
367 363 351 353 344 334 332 343 312 313 297 307 305 285 311 299 294 271 251 278 264 282 276 270 265 258 252 247 243 243 242 240 240 239 238 233 234 235 235 237 236 236 238 236
366 360 352 359 345 335 327 327 318 322 302 316 298 291 343 300 282 285 270 254 250 277 278 265 261 248 248 244 242 237 232 233 232 231 232 230 230 238 243 239 228 223 264 264
360 358 353 363 342 338 327 325 320 316 310 299 304 300 382 334 295 285 279 246 253 252 278 268 258 254 246 246 240 235 238 241 240 240 237 239 234 227 221 263 272 241 229 221
89 347 356 358 343 331 324 321 318 328 316 301 311 291 294 360 325 297 283 255 255 248 271 269 260 254 249 248 242 238 242 239 235 226 267 277 283 277 279 237 228 216 217 222
138 348 360 354 345 334 323 321 319 308 336 307 305 289 309 278 348 320 291 270 254 250 250 265 269 256 249 247 243 238 241 234 227 261 273 273 270 237 223 210 227 217 220 224
350 103 354 348 340 231 326 320 315 311 303 302 315 296 295 274 354 344 317 287 264 256 249 241 248 269 262 256 251 239 240 232 240 261 269 231 228 215 216 214 211 213 222 219
352 350 348 344 335 327 322 311 314 311 300 301 311 290 289 280 359 338 331 305 277 260 254 248 241 234 261 254 253 248 236 239 232 257 233 218 214 217 215 211 211 216 215 220
344 288 344 340 328 327 316 316 306 316 319 307 293 294 285 349 337 331 327 332 314 265 255 255 242 233 241 258 262 254 244 243 233 248 221 215 213 215 213 215 208 213 217 212
342 338 339 328 327 324 316 319 321 307 296 298 300 301 281 360 346 332 334 318 337 318 264 256 253 236 237 243 256 271 251 247 240 239 229 216 215 214 214 215 214 215 216 192
330 334 329 324 318 318 328 312 302 304 302 288 285 345 336 334 318 316 322 323 325 317 318 268 261 256 245 235 245 245 254 269 252 240 240 227 213 213 212 214 213 213 218 219
324 323 321 317 311 330 314 419 422 419 368 355 342 327 320 324 316 309 307 310 313 312 318 315 278 269 267 264 249 249 243 240 264 265 248 232 224 223 222 221 219 220 219 222
316 315 312 314 322 308 356 371 357 346 336 326 317 318 312 304 307 302 301 306 299 294 294 297 300 306 308 312 296 277 263 248 247 239 262 261 241 229 224 224 222 224 225 224
308 309 307 309 303 342 357 341 325 322 325 311 310 297 294 303 295 295 287 280 281 286 281 281 281 280 284 300 309 319 322 320 284 250 244 240 263 258 240 236 233 235 248 248
308 302 297 299 312 341 327 330 323 314 312 306 296 297 295 292 295 277 282 277 279 276 268 267 265 270 271 284 307 325 366 362 346 348 256 247 243 235 257 252 253 243 241 232
304 298 292 289 292 290 328 319 312 306 309 299 293 295 291 290 276 275 278 271 267 266 264 263 265 261 271 271 282 289 295 306 308 307 317 261 249 245 237 235 238 234 208 225
304 295 297 291 291 286 305 302 312 308 312 295 290 291 288 285 270 273 265 269 261 259 263 256 265 264 264 268 272 277 282 292 302 308 310 319 262 244 243 231 228 225 215 214
301 293 289 289 284 290 281 286 317 309 313 286 301 291 286 280 267 282 271 267 262 262 260 254 267 263 256 267 264 274 269 278 290 288 305 299 298 258 245 243 237 231 230 227
Wind_Speed
88 59 93 73 70 71 71 50 52 53 13 16 12 18 12 18 23 27 32 37 34 33 31 29 33 40 38 45 51 49 42 47 47 50 56 49 46 47 51 55 59 62 69 78
74 71 54 54 83 61 67 46 48 48 12 12 11 19 16 25 27 24 26 25 22 22 25 28 32 33 29 34 35 40 38 36 31 33 40 48 47 53 46 52 51 54 57 58
89 73 74 64 69 49 58 41 42 43 24 12 6 20 23 22 21 21 20 20 21 22 22 25 23 27 27 27 30 31 33 34 29 32 33 34 35 34 47 48 52 51 51 52
62 53 49 65 60 45 40 39 42 38 9 5 4 23 22 19 14 19 18 14 16 21 22 26 27 23 25 25 26 24 26 28 32 32 34 37 39 40 42 47 50 50 47 46
63 45 55 56 56 42 34 34 38 35 9 9 8 24 21 15 15 16 14 13 15 16 21 21 21 22 20 18 17 21 23 27 31 38 39 41 42 42 41 45 45 44 46 43
83 61 55 52 47 38 28 28 36 32 6 11 19 21 11 13 15 12 14 13 14 13 15 19 20 21 21 21 20 20 20 20 24 32 37 45 44 46 46 48 48 46 46 46
59 58 53 44 39 36 37 24 30 28 5 15 19 14 10 14 7 11 6 8 9 10 17 18 22 22 20 19 21 22 23 23 23 24 26 35 45 46 47 50 52 49 49 52
56 54 50 34 32 32 26 22 25 24 24 12 6 17 16 10 9 6 6 10 13 16 15 16 17 15 22 20 19 18 18 20 21 23 24 27 32 41 46 49 51 51 51 49
75 51 46 35 30 28 28 21 22 24 22 8 20 19 19 17 12 9 11 14 12 10 14 24 23 22 20 18 17 18 20 20 19 18 19 20 22 24 26 30 35 40 39 37
52 49 45 34 31 27 26 24 20 18 16 16 11 24 13 17 14 18 13 12 12 16 21 21 21 19 18 17 17 14 11 12 15 16 17 18 18 19 20 20 20 20 21 22
50 47 43 35 30 29 26 21 22 18 18 16 13 13 29 25 29 22 12 20 15 20 22 20 21 20 20 19 20 19 18 18 19 20 20 21 22 23 22 23 23 22 21 21
48 46 42 32 29 30 28 25 22 20 18 15 16 15 32 30 24 30 26 16 12 21 26 23 23 22 22 22 21 20 19 18 19 20 21 22 23 22 21 20 22 22 19 19
47 45 40 31 31 30 29 26 25 23 21 18 17 19 29 37 31 30 31 18 19 17 27 27 25 25 23 24 23 20 20 19 19 19 21 22 23 21 22 23 22 22 20 19
25 45 37 31 30 30 31 28 26 25 23 20 19 18 19 38 40 36 33 27 25 20 26 29 27 26 25 26 25 22 23 22 21 22 19 19 23 25 25 25 22 21 19 17
29 43 32 32 29 29 30 30 26 25 28 22 21 19 19 20 42 45 38 36 29 27 23 28 32 29 27 27 27 25 24 24 23 19 19 21 24 27 24 21 22 19 18 16
42 20 31 31 29 25 29 27 26 25 24 23 24 21 22 22 37 51 48 40 36 32 28 27 27 30 30 31 31 30 27 27 23 21 22 27 26 22 23 22 20 19 18 16
37 35 29 29 28 27 27 26 25 25 25 25 23 21 25 25 37 40 46 48 41 36 33 32 28 28 30 31 35 32 31 29 27 25 30 27 24 25 24 22 20 19 17 18
35 28 27 27 27 25 27 24 24 26 25 23 22 25 26 31 38 40 41 42 46 40 36 36 33 31 30 37 36 30 35 32 33 32 32 29 29 28 26 25 23 20 20 19
31 28 25 25 25 23 23 24 25 24 23 23 28 29 26 29 33 32 29 29 28 39 41 38 34 37 38 36 33 35 38 38 37 39 37 33 32 30 29 28 26 24 23 23
30 24 24 24 21 21 21 23 24 23 25 27 25 23 26 24 23 19 19 20 22 29 35 37 38 41 41 37 37 36 36 40 42 41 42 39 34 32 31 31 29 27 27 26
25 24 23 22 19 15 17 20 19 25 30 30 27 27 24 21 21 19 19 18 20 20 18 22 35 40 41 43 42 40 41 40 39 42 44 43 39 39 37 35 33 32 31 30
24 22 22 18 12 13 11 26 28 29 29 28 26 24 25 24 22 21 20 19 19 19 21 19 20 19 21 23 34 46 48 44 45 41 41 45 46 43 40 39 37 37 36 34
24 22 21 17 13 12 24 26 24 25 26 27 27 26 26 25 24 24 24 22 22 22 20 16 14 16 17 18 23 27 31 36 48 45 43 42 42 45 44 43 41 41 37 35
25 23 21 18 13 17 18 25 26 25 26 27 29 27 29 27 27 24 23 24 24 21 19 16 16 12 13 10 9 8 12 24 29 27 48 45 43 39 40 39 38 37 36 34
28 25 23 23 18 16 26 26 25 24 27 30 29 31 31 29 28 26 28 27 24 22 19 15 14 12 10 8 7 3 7 8 14 22 26 48 45 44 40 39 39 39 35 36
30 28 27 27 22 21 24 23 27 26 28 30 28 33 32 31 29 30 28 28 25 22 20 17 15 14 12 10 9 7 6 7 10 12 16 15 44 43 45 41 40 39 38 38
34 33 31 29 24 21 21 20 30 29 32 29 34 36 35 33 32 32 33 30 28 25 23 20 18 15 14 12 12 10 13 9 8 11 11 19 22 49 48 48 47 46 46 45
Wind_Direction
328 337 338 335 336 335 336 346 349 350 37 41 95 140 105 106 96 128 125 133 138 144 150 162 165 170 184 184 188 196 204 210 215 220 221 226 222 219 218 215 220 221 224 225
327 335 337 331 334 336 336 345 348 351 44 59 92 142 117 115 115 117 126 129 136 150 158 155 161 174 182 189 193 194 198 204 207 218 225 225 227 224 219 216 216 220 227 231
327 330 330 329 334 337 337 345 348 351 9 92 116 141 129 127 125 128 130 138 143 144 149 155 169 173 181 191 198 202 199 202 200 206 210 210 212 217 222 225 220 222 224 229
331 329 330 329 330 337 339 342 345 352 27 101 103 145 137 133 127 137 143 149 153 152 154 153 167 170 176 189 204 204 200 202 200 201 208 210 211 215 219 217 222 225 226 229
327 325 331 328 328 334 338 339 344 350 18 52 136 150 147 145 146 151 155 160 163 161 159 163 164 173 181 185 188 193 204 212 205 205 207 209 209 210 214 220 227 227 229 230
328 324 327 327 330 331 333 337 339 349 74 106 157 161 161 161 160 163 160 172 169 168 170 171 173 176 177 184 188 195 199 206 208 212 206 210 213 215 213 218 224 224 228 231
321 322 324 329 328 326 328 333 334 345 127 146 161 175 178 171 7 176 193 182 188 188 176 176 178 183 187 189 193 196 198 199 202 205 206 210 212 215 218 221 225 230 234 237
318 319 321 329 322 319 316 324 328 335 343 211 284 194 192 198 214 348 221 211 204 187 189 188 191 198 190 186 187 186 188 190 192 199 202 208 212 216 220 226 230 234 237 239
323 315 318 319 315 311 310 307 318 322 329 234 216 230 223 230 251 267 246 215 224 244 222 183 186 186 181 183 189 186 184 184 183 182 182 188 197 204 211 219 227 233 236 235
311 312 314 314 308 303 300 302 300 304 304 310 275 231 241 236 249 256 257 241 241 219 202 196 187 188 182 170 157 157 166 168 160 159 162 165 166 168 173 178 180 183 187 195
309 308 310 309 299 297 291 277 287 284 295 282 285 293 229 233 230 240 246 229 240 209 205 201 191 189 184 178 174 170 174 176 173 174 178 182 182 183 184 186 190 192 199 206
305 305 306 303 291 287 286 283 276 266 278 259 273 278 226 229 229 232 235 240 245 220 207 205 198 200 194 193 187 187 190 194 194 195 199 199 202 201 198 195 195 202 206 198
301 302 302 295 288 282 281 277 272 266 265 270 255 259 221 225 227 226 230 226 233 238 213 212 209 206 206 202 201 202 205 208 208 206 206 208 206 198 203 202 194 186 197 207
298 299 299 291 282 281 277 274 269 261 260 265 256 262 259 217 226 228 222 220 223 219 228 215 213 211 212 210 210 209 211 210 211 209 220 211 203 201 192 186 195 205 208 214
294 294 293 288 280 276 273 270 266 266 255 259 260 261 251 264 222 226 225 218 215 215 220 221 218 217 218 218 217 213 214 212 213 222 213 197 187 182 193 206 201 213 220 225
291 319 291 284 279 289 268 267 264 262 262 260 253 263 261 269 223 222 227 222 216 213 211 211 213 220 220 221 221 217 215 212 219 220 203 194 198 205 208 213 215 222 226 233
288 289 289 281 277 271 267 263 260 258 259 261 257 264 266 269 217 215 221 226 216 213 211 212 207 207 225 225 226 218 219 215 214 217 199 209 216 216 217 220 224 229 237 241
286 295 286 280 273 271 266 264 262 260 258 257 263 263 265 225 221 219 222 228 227 215 213 215 207 208 219 229 230 222 224 220 214 212 209 216 219 222 226 229 227 236 243 248
282 286 283 274 275 270 264 261 258 254 256 258 258 261 268 204 211 222 227 224 224 224 217 217 211 215 219 225 226 228 223 224 216 215 216 220 224 228 232 236 240 244 246 252
278 281 277 276 277 273 262 250 249 249 246 251 258 202 193 182 190 194 201 209 211 219 225 220 221 222 219 231 224 219 227 229 226 218 219 222 228 230 234 239 243 248 252 255
271 273 276 279 278 273 254 130 142 153 167 176 183 186 188 176 175 183 192 195 200 208 205 219 228 230 231 231 231 227 225 228 229 229 224 224 226 231 235 238 242 248 252 255
260 265 269 277 283 263 152 141 149 158 165 169 176 173 171 179 173 178 180 174 174 185 200 206 224 235 243 249 244 239 233 231 230 227 227 228 227 230 234 239 242 246 250 253
249 252 260 266 266 177 147 152 165 167 165 171 169 181 185 178 182 175 171 181 184 186 194 203 219 236 248 264 261 257 248 241 232 231 229 231 230 231 235 239 242 247 247 244
235 240 247 248 228 168 172 170 174 177 175 172 182 184 185 188 179 182 180 186 186 187 196 209 219 237 253 277 293 316 260 239 234 232 227 229 232 232 233 235 235 238 239 245
225 227 235 236 233 228 182 187 189 187 183 187 190 189 193 189 183 184 185 190 192 195 202 210 216 230 240 256 261 164 123 145 185 214 223 224 228 232 235 236 236 238 247 246
217 218 220 229 224 222 201 204 198 197 192 195 199 197 197 192 190 192 198 194 203 204 204 214 218 228 236 245 241 229 219 223 216 211 209 215 223 228 232 237 240 243 248 252
215 216 221 227 225 228 227 219 203 200 196 203 196 200 199 198 195 194 198 201 206 207 207 211 215 218 222 228 229 228 226 224 220 210 222 198 204 221 228 232 236 241 244 247